[[{"header":{"parameterUnit":"m.s-1","parameterCategory":1,"la1":30.2991,"la2":30.254,"lo1":-89.0895,"lo2":-89.0444,"dy":0.0017,"dx":0.0017,"nx":28,"ny":28,"refTime":"2025-06-05T03:00:00:Z","depth":0,"parameterNumber":2,"parameterNumberName":"U-component_of_WINDS"},"data":[0,0,0,0,0,0,0,0,0,0,0,0,0,0,0,0,0,0,0,0,0,0,0,0,0,0,0,0,0,0,0,0,0,0,0,0,0,0,0,0,0,0,0,0,0,0,0,0,0,0,0,0,0,0,0,0,0,0,1.7049,1.7048,0,1.7012,1.7012,1.7012,1.6895,1.6892,1.689,1.6887,1.6857,1.6859,1.6861,0,0,0,0,0,0,0,0,0,0,0,0,0,1.7021,1.7022,1.7049,1.7048,1.7048,1.7012,1.7012,1.7011,1.6895,1.6892,1.6889,1.6886,1.6857,1.6859,1.6861,0,0,0,0,0,0,0,0,0,0,0,0,0,1.7014,1.7022,1.7049,1.6985,1.6979,1.7012,1.7012,1.7011,1.6896,1.6892,1.6888,1.6884,1.6856,1.6859,1.6861,1.6955,0,0,1.6869,1.687,0,0,0,0,0,0,0,0,1.7014,1.7015,1.6995,1.699,1.6983,1.6954,1.6991,1.6993,1.6897,1.6928,1.6887,1.6883,1.6893,1.6892,1.6894,1.6954,1.6952,1.6869,1.687,1.6871,1.6872,0,0,0,0,0,0,0,1.7015,1.7016,1.7034,1.6995,1.6988,1.696,1.6954,1.6991,1.6933,1.6925,1.6916,1.6913,1.6889,1.6892,1.6893,1.6952,1.6869,1.6871,1.6872,1.6873,1.7082,1.7086,0,0,0,0,0,0,1.7024,1.7017,1.7036,1.7033,1.6989,1.6964,1.6958,1.6967,1.6932,1.6923,1.6917,1.6908,1.689,1.689,1.6891,1.6997,1.6871,1.6874,1.6875,1.7078,1.7083,1.7087,0,0,0,0,0,0,1.7024,1.7027,1.7037,1.7023,1.7022,1.6968,1.698,1.6969,1.6972,1.6926,1.6916,1.693,1.6887,1.6888,1.6938,1.6994,1.6875,1.6877,1.7073,1.708,1.7085,1.721,0,0,0,0,0,0,1.7023,1.7027,1.7062,1.7024,1.7023,1.7084,1.6984,1.6971,1.6975,1.6964,1.6936,1.6928,1.6884,1.6935,1.6941,1.6995,1.6879,1.7068,1.7076,1.7083,1.7201,1.722,1.7236,0,0,0,0,0,1.7023,1.7101,1.7064,1.7067,1.7065,1.7088,1.7087,1.7033,1.698,1.7015,1.6985,1.6929,1.6987,1.6942,1.6947,1.7003,1.7064,1.7074,1.7083,1.7193,1.7216,1.7235,0,0,0,0,0,0,1.7151,1.7095,1.7054,1.7122,1.711,1.7068,1.711,1.706,1.7065,1.7054,1.6988,1.6983,1.7043,1.7028,1.6978,1.709,1.7016,1.7027,1.7098,1.7119,1.7137,1.714,1.6881,0,0,0,0,0,1.7186,1.7207,1.7158,1.7223,1.7219,1.7166,1.7174,1.7132,1.7118,1.7114,1.7087,1.7078,1.7093,1.7105,1.7117,1.7197,1.7189,1.7238,1.7255,1.727,1.7281,1.7319,1.734,1.7117,1.7117,1.7117,0,0,1.7261,1.7233,1.7251,1.7248,1.7234,1.7258,1.7163,1.7194,1.7211,1.7119,1.7164,1.7144,1.7129,1.7194,1.7221,1.7183,1.7339,1.7282,1.7294,1.7296,1.733,1.7352,1.737,1.7124,1.7122,1.7121,0,0,1.7409,1.7391,1.7441,1.7427,1.7405,1.7369,1.7381,1.7345,1.7327,1.7371,1.7301,1.7322,1.7351,1.7341,1.7341,1.748,1.7428,1.7486,1.7578,1.7617,1.7634,1.7649,1.7698,1.7716,1.7496,1.7496,1.7497,0,1.7506,1.7538,1.7474,1.7507,1.7507,1.7421,1.7471,1.7462,1.7447,1.7449,1.7406,1.7437,1.7421,1.7481,1.7514,1.7517,1.7529,1.749,1.7636,1.7651,1.7664,1.771,1.7729,1.7504,1.7503,1.7502,1.7501,0,1.7657,1.768,1.7723,1.7706,1.7711,1.7754,1.7696,1.7709,1.7666,1.7634,1.7678,1.7654,1.7659,1.7669,1.763,1.7723,1.77,1.7648,1.7572,1.7693,1.7735,1.7752,1.7514,1.7511,1.7509,1.7507,0,0,1.7889,1.7831,1.7849,1.7838,1.7805,1.7823,1.786,1.7861,1.7872,1.7864,1.7893,1.7917,1.7867,1.7866,1.7824,1.7857,1.7967,1.78,1.7798,1.7831,1.8067,1.8107,1.8128,1.7931,1.7934,1.7937,1.8068,0,1.8028,1.8087,1.8028,1.81,1.8119,1.8035,1.8067,1.8051,1.8021,1.8034,1.8002,1.8019,1.7952,1.795,1.7979,1.7948,1.8013,1.7937,1.7959,1.7961,1.7966,1.815,1.8194,1.8319,1.8084,1.8087,1.8089,0,1.8201,1.8195,1.8267,1.8226,1.8232,1.8262,1.8256,1.8269,1.8249,1.8224,1.8221,1.8167,1.8201,1.8126,1.8171,1.8121,1.8126,1.8111,1.8114,1.8115,1.8033,1.8157,1.8358,1.8377,1.8114,1.8112,1.811,0,1.8361,1.8373,1.8416,1.841,1.8363,1.8386,1.8368,1.8342,1.8345,1.8341,1.8342,1.8342,1.8343,1.8345,1.8293,1.8243,1.8344,1.8265,1.8326,1.8327,1.8353,1.8352,1.8558,1.8355,1.8355,1.8355,1.8354,0,1.8524,1.8572,1.8487,1.8514,1.8564,1.8495,1.8547,1.852,1.8498,1.8519,1.8446,1.8468,1.8397,1.8411,1.8371,1.8414,1.8415,1.8397,1.8386,1.8403,1.8406,1.8407,1.8397,1.836,1.8359,1.8358,1.8357,0,1.8714,1.8659,1.87,1.865,1.8639,1.8678,1.8636,1.8659,1.8622,1.8649,1.8651,1.8595,1.8607,1.8554,1.8559,1.8531,1.8595,1.8569,1.8602,1.8594,1.8657,1.8652,1.8871,1.8896,1.8678,1.868,1.8682,0,1.8822,1.8855,1.8807,1.8814,1.8799,1.8812,1.8813,1.8746,1.8751,1.8726,1.8753,1.8757,1.8758,1.8782,1.8742,1.8744,1.8718,1.8794,1.8718,1.8734,1.8718,1.8717,1.872,1.8811,1.8814,1.8816,1.8818,0,1.9019,1.8988,1.8992,1.8985,1.8987,1.8979,1.8966,1.8977,1.8904,1.8913,1.8922,1.8922,1.8923,1.893,1.8922,1.8905,1.885,1.8841,1.8855,1.8875,1.8892,1.8883,1.8645,1.8837,1.8836,1.8834,1.8833,1.8832,1.917,1.9195,1.9164,1.9169,1.9151,1.914,1.9158,1.9121,1.9127,1.9121,1.9081,1.9098,1.9073,1.9057,1.9044,1.9056,1.9021,1.9041,1.9047,1.9053,1.9064,1.8888,1.9055,1.9054,1.9054,1.9053,1.9053,0,1.9363,1.9338,1.9343,1.9325,1.9329,1.9272,1.9254,1.9261,1.9276,1.9256,1.9256,1.9266,1.927,1.9229,1.9228,1.9245,1.922,1.9248,1.9246,1.9243,1.9096,1.9084,1.9268,1.9268,1.9268,1.9268,1.9268,1.9268,1.9464,1.9502,1.9468,1.9495,1.947,1.9483,1.9477,1.9466,1.9449,1.9462,1.9464,1.9435,1.9407,1.9402,1.9403,1.9391,1.9394,1.943,1.941,1.9274,1.9253,1.9233,1.9221,1.9431,1.9432,1.9555,1.9556,1.9557]},{"header":{"parameterUnit":"m.s-1","parameterCategory":1,"la1":30.2991,"la2":30.254,"lo1":-89.0895,"lo2":-89.0444,"dy":0.0017,"dx":0.0017,"nx":28,"ny":28,"refTime":"2025-06-05T03:00:00:Z","depth":0,"parameterNumber":3,"parameterNumberName":"V-component_of_WINDS"},"data":[0,0,0,0,0,0,0,0,0,0,0,0,0,0,0,0,0,0,0,0,0,0,0,0,0,0,0,0,0,0,0,0,0,0,0,0,0,0,0,0,0,0,0,0,0,0,0,0,0,0,0,0,0,0,0,0,0,0,4.38,4.3802,0,4.395,4.3951,4.3953,4.398,4.3979,4.3978,4.3977,4.4122,4.4127,4.4132,0,0,0,0,0,0,0,0,0,0,0,0,0,4.3531,4.3536,4.38,4.3802,4.3804,4.3949,4.3951,4.3953,4.398,4.3979,4.3978,4.3976,4.412,4.4126,4.4132,0,0,0,0,0,0,0,0,0,0,0,0,0,4.366,4.3537,4.38,4.3835,4.384,4.3949,4.3951,4.3954,4.3981,4.3979,4.3977,4.3975,4.4118,4.4126,4.4133,4.4215,0,0,4.4156,4.4159,0,0,0,0,0,0,0,0,4.3653,4.367,4.3828,4.3833,4.3838,4.3945,4.391,4.4041,4.3981,4.3927,4.3977,4.3975,4.4064,4.4076,4.4107,4.4222,4.4228,4.4157,4.4161,4.4164,4.4166,0,0,0,0,0,0,0,4.3644,4.3664,4.3859,4.383,4.3837,4.3841,4.3857,4.3935,4.4003,4.3932,4.3934,4.3952,4.4066,4.41,4.4111,4.423,4.4156,4.4163,4.4168,4.417,4.4418,4.442,0,0,0,0,0,0,4.363,4.3656,4.3854,4.3864,4.374,4.3847,4.3866,4.3912,4.4003,4.4015,4.3953,4.3952,4.4088,4.4102,4.4116,4.4218,4.4164,4.4171,4.4176,4.4416,4.4419,4.4421,0,0,0,0,0,0,4.3624,4.3647,4.3848,4.3761,4.3787,4.3854,4.3906,4.3916,4.395,4.4019,4.4031,4.3976,4.4087,4.4106,4.4191,4.4223,4.4175,4.4181,4.4414,4.4417,4.442,4.4422,0,0,0,0,0,0,4.3616,4.3645,4.3679,4.3761,4.3791,4.3923,4.3908,4.392,4.3964,4.3964,4.4043,4.4055,4.4087,4.4179,4.4198,4.4233,4.4187,4.4411,4.4415,4.4419,4.442,4.4425,4.443,0,0,0,0,0,4.3606,4.3672,4.368,4.3704,4.3835,4.3925,4.3941,4.398,4.3966,4.4,4.4044,4.4052,4.4217,4.4188,4.4209,4.4247,4.4409,4.4414,4.4418,4.4417,4.4424,4.443,0,0,0,0,0,0,4.3589,4.3684,4.3694,4.3789,4.3849,4.3929,4.3972,4.3986,4.4049,4.4047,4.409,4.4107,4.4189,4.4226,4.4192,4.433,4.4312,4.4321,4.4303,4.431,4.4315,4.4305,4.4193,0,0,0,0,0,4.3597,4.3664,4.3742,4.3818,4.3848,4.3905,4.3945,4.397,4.4032,4.4057,4.4107,4.4166,4.4231,4.4272,4.4336,4.4425,4.4441,4.4461,4.4466,4.447,4.4477,4.4526,4.4535,4.4436,4.4436,4.4436,0,0,4.3613,4.3672,4.3712,4.3816,4.3865,4.3931,4.3926,4.3996,4.4045,4.4067,4.4151,4.419,4.4257,4.4345,4.4385,4.4378,4.4508,4.4476,4.4478,4.4484,4.4532,4.4541,4.4549,4.444,4.4439,4.4438,0,0,4.3675,4.3728,4.3797,4.3847,4.3923,4.396,4.3976,4.4055,4.4082,4.4168,4.4186,4.4243,4.4354,4.4401,4.444,4.452,4.4529,4.4539,4.4566,4.4613,4.4621,4.4628,4.4656,4.4665,4.4546,4.4546,4.4546,0,4.3685,4.3788,4.383,4.39,4.3945,4.397,4.4039,4.4084,4.4175,4.4204,4.4195,4.4335,4.4382,4.4481,4.45,4.4531,4.4549,4.453,4.4617,4.4624,4.4631,4.4658,4.4669,4.4547,4.4547,4.4546,4.4546,0,4.3795,4.3866,4.3912,4.4003,4.4052,4.4121,4.4171,4.4216,4.4235,4.4273,4.4358,4.4416,4.4492,4.4517,4.4536,4.4618,4.4611,4.4608,4.4591,4.4641,4.4667,4.4678,4.4548,4.4547,4.4547,4.4547,0,0,4.3852,4.3965,4.3981,4.4022,4.4107,4.4161,4.423,4.4306,4.4343,4.4404,4.4462,4.4556,4.4554,4.4598,4.4622,4.4664,4.4723,4.4657,4.4659,4.4667,4.4815,4.4816,4.4828,4.4729,4.4731,4.4733,4.4809,0,4.3925,4.4052,4.4091,4.4196,4.4261,4.4286,4.4345,4.4402,4.4439,4.4497,4.4536,4.4602,4.4596,4.4622,4.4664,4.4707,4.4753,4.4702,4.4782,4.4784,4.4764,4.4841,4.4843,4.4912,4.482,4.4821,4.4823,0,4.4027,4.4093,4.4205,4.4281,4.431,4.4363,4.4436,4.4492,4.4556,4.458,4.4629,4.465,4.472,4.4698,4.4795,4.4759,4.4794,4.4819,4.4823,4.4832,4.4806,4.4852,4.4935,4.4945,4.4839,4.4838,4.4837,0,4.4057,4.4173,4.4255,4.429,4.4381,4.4417,4.4456,4.4519,4.4562,4.4624,4.4652,4.4721,4.4759,4.481,4.4848,4.4829,4.4941,4.4922,4.4961,4.496,4.4984,4.4982,4.5073,4.5006,4.5006,4.5005,4.5005,0,4.4134,4.4202,4.427,4.4321,4.4396,4.444,4.4512,4.4552,4.4608,4.4664,4.4688,4.4741,4.4788,4.4846,4.4876,4.4951,4.4967,4.4987,4.4994,4.4985,4.4982,4.5008,4.5005,4.5008,4.5008,4.5007,4.5007,0,4.4181,4.423,4.4321,4.44,4.4421,4.4473,4.4539,4.4588,4.4625,4.4697,4.4716,4.4774,4.4843,4.4886,4.4973,4.4993,4.5076,4.5081,4.5055,4.5058,4.5095,4.509,4.5206,4.5223,4.5144,4.5145,4.5145,0,4.4227,4.428,4.4365,4.4406,4.4446,4.4512,4.4556,4.46,4.4645,4.4721,4.476,4.4832,4.4891,4.5,4.5048,4.5115,4.5122,4.5158,4.5132,4.5121,4.5122,4.5119,4.5124,4.5162,4.5163,4.5163,4.5164,0,4.4304,4.4325,4.439,4.4463,4.4516,4.4575,4.4634,4.4665,4.4718,4.4767,4.4839,4.4886,4.4976,4.5046,4.5117,4.5154,4.5167,4.5172,4.5184,4.5176,4.5158,4.5168,4.5067,4.5169,4.5168,4.5168,4.5168,4.5167,4.4352,4.44,4.4467,4.4538,4.4587,4.4641,4.4691,4.4735,4.4797,4.4876,4.4897,4.4972,4.5033,4.513,4.5169,4.5227,4.5222,4.524,4.5244,4.5248,4.5249,4.5149,4.524,4.524,4.524,4.524,4.524,0,4.443,4.4475,4.4539,4.4622,4.4677,4.4687,4.4752,4.4796,4.4864,4.4921,4.4979,4.5062,4.5129,4.5183,4.5252,4.5288,4.5296,4.5305,4.5303,4.5311,4.525,4.5232,4.5297,4.5297,4.5297,4.5297,4.5297,4.5297,4.4477,4.4559,4.4588,4.4693,4.4737,4.4813,4.4849,4.4898,4.4944,4.5036,4.5094,4.5129,4.5184,4.5258,4.5319,4.5333,4.5357,4.5365,4.538,4.5322,4.5315,4.5309,4.5293,4.537,4.537,4.5436,4.5437,4.5437]}]]